Darstellungsparameter: Aktuell verwendete Einstellungen:
Skalierung der Graphiken ... ?
xyx+y,   Skalierungsfaktor:      Skalierung: Modus: x, Faktor: 1
Darstellungszeitraum ... ?
Vom - - bis: - -   Zeitraum: 25.01.2020 - 24.04.2020
Min/Max/Avg-Anzeige ... ?
Zeige MMA aktuell
Zeige MMA Monat
Zeige MMA alles
Zeige --A aktuell
Zeige --A Monat
Zeige --A alles
Keine MMA-Anzeige
MMA:
Keine MMA-Graphiken
MMA-Basis: 25.01.2020 - 24.04.2020
Quicknavigation für Darstellung... ?
Tage:      1T, 2T, 3T, 5T -1T -2T -3T -5T +1T +2T +3T +5T
Wochen: 1W, 2W, 3W -1W -2W -3W +1W +2W +3W
Monate: 1M, 3M, 6M -1M -3M -6M +1M +3M +6M
Jahre:    1J, 3J, 5J, 10J -1J -3J -5J -10J +1J +3J +5J +10J
Nutze für die Darstellung ... ?
Originaldaten oder ...
Mittelwerte Minima Maxima auf...
Stundenbasis Tagesbasis Wochenbasis
Monatsbasis Jahresbasis      Datenbasis: Mittelwerte auf Tagesbasis
Darstellen als:
Statistik (Auto) Statistik J:M      Darstellung:
Zur Graphik,    zurück zur Übersicht aller Sensoren.
 
Tabellarische Datenbersicht: ?
 
Sensor: Nr:Datum:Temp:Feuchte:
Aussen-T/F 1 25-01-2020 00:00:00 1.99236 C 39.2014 %
2 26-01-2020 00:00:00 2.13056 C 41.5625 %
3 27-01-2020 00:00:00 5.48542 C 39.8264 %
4 28-01-2020 00:00:00 5.07708 C 30.3750 %
5 29-01-2020 00:00:00 4.20764 C 29.8611 %
6 30-01-2020 00:00:00 7.57569 C 29.5694 %
7 31-01-2020 00:00:00 12.86181 C 27.9167 %
8 01-02-2020 00:00:00 11.16597 C 32.0972 %
9 02-02-2020 00:00:00 9.925 C 31.1319 %
10 03-02-2020 00:00:00 10.19236 C 29.5139 %
11 04-02-2020 00:00:00 4.29514 C 36.4097 %
12 05-02-2020 00:00:00 3.05069 C 37.1458 %
13 06-02-2020 00:00:00 0.04514 C 42.7500 %
14 07-02-2020 00:00:00 -0.30764 C 42.8264 %
15 08-02-2020 00:00:00 1.01389 C 43.0069 %
16 09-02-2020 00:00:00 8.36458 C 32.5764 %
17 10-02-2020 00:00:00 7.85 C 31.3611 %
18 11-02-2020 00:00:00 5.29167 C 24.6597 %
19 12-02-2020 00:00:00 4.32083 C 30.5972 %
20 13-02-2020 00:00:00 3.32917 C 42.1250 %
21 14-02-2020 00:00:00 5.46458 C 39.2639 %
22 15-02-2020 00:00:00 5.89931 C 38.0278 %
23 16-02-2020 00:00:00 14.44931 C 23.2431 %
24 17-02-2020 00:00:00 8.25903 C 32.4167 %
25 18-02-2020 00:00:00 6.89097 C 31.0347 %
Sensor: Nr:Datum:Temp:Feuchte:
Aussen-T/F 26 19-02-2020 00:00:00 5.73889 C 30.1875 %
27 20-02-2020 00:00:00 7.7125 C 32.9722 %
28 21-02-2020 00:00:00 4.71042 C 33.5972 %
29 22-02-2020 00:00:00 7.67986 C 30.0347 %
30 23-02-2020 00:00:00 10.01389 C 35.3403 %
31 24-02-2020 00:00:00 7.74653 C 36.3194 %
32 25-02-2020 00:00:00 8.81597 C 32.2778 %
33 26-02-2020 00:00:00 4.37431 C 33.6806 %
34 27-02-2020 00:00:00 2.22153 C 41.6806 %
35 28-02-2020 00:00:00 3.52431 C 38.4514 %
36 29-02-2020 00:00:00 8.60556 C 34.8889 %
37 01-03-2020 00:00:00 7.15694 C 36.0000 %
38 02-03-2020 00:00:00 5.99375 C 40.1667 %
39 03-03-2020 00:00:00 4.26806 C 39.6458 %
40 04-03-2020 00:00:00 5.28958 C 37.5764 %
41 05-03-2020 00:00:00 5.45764 C 43.0833 %
42 06-03-2020 00:00:00 5.63958 C 40.4931 %
43 07-03-2020 00:00:00 6.26458 C 33.7569 %
44 08-03-2020 00:00:00 9.46458 C 32.2361 %
45 09-03-2020 00:00:00 7.81875 C 35.4514 %
46 10-03-2020 00:00:00 9.06181 C 39.4514 %
47 11-03-2020 00:00:00 14.0375 C 35.2639 %
48 12-03-2020 00:00:00 11.01597 C 30.3681 %
49 13-03-2020 00:00:00 6.99236 C 33.4236 %
50 14-03-2020 00:00:00 5.89028 C 38.1667 %
Sensor: Nr:Datum:Temp:Feuchte:
Aussen-T/F 51 15-03-2020 00:00:00 9.14653 C 32.2153 %
52 16-03-2020 00:00:00 9.43264 C 35.6667 %
53 17-03-2020 00:00:00 12.02708 C 33.7847 %
54 18-03-2020 00:00:00 9.92639 C 36.2153 %
55 19-03-2020 00:00:00 12.58194 C 32.0417 %
56 20-03-2020 00:00:00 10.52657 C 36.2308 %
57 21-03-2020 00:00:00 5.89653 C 34.6597 %
58 22-03-2020 00:00:00 4.30139 C 28.5278 %
59 23-03-2020 00:00:00 3.12292 C 27.0764 %
60 24-03-2020 00:00:00 2.82431 C 27.8403 %
61 25-03-2020 00:00:00 3.67014 C 25.0486 %
62 26-03-2020 00:00:00 5.25486 C 23.4931 %
63 27-03-2020 00:00:00 8.10139 C 29.8819 %
64 28-03-2020 00:00:00 9.69236 C 30.9306 %
65 29-03-2020 00:00:00 5.0942 C 30.1377 %
66 30-03-2020 00:00:00 2.89028 C 29.9167 %
67 31-03-2020 00:00:00 5.79792 C 30.1528 %
68 01-04-2020 00:00:00 4.16111 C 29.6944 %
69 02-04-2020 00:00:00 5.26806 C 31.1944 %
70 03-04-2020 00:00:00 7.93542 C 28.5069 %
71 04-04-2020 00:00:00 6.89375 C 31.8958 %
72 05-04-2020 00:00:00 9.74514 C 32.0625 %
73 06-04-2020 00:00:00 12.17708 C 29.7431 %
74 07-04-2020 00:00:00 14.2875 C 28.9028 %
75 08-04-2020 00:00:00 15.02153 C 31.1528 %
Sensor: Nr:Datum:Temp:Feuchte:
Aussen-T/F 76 09-04-2020 00:00:00 15.89514 C 27.6458 %
77 10-04-2020 00:00:00 14.80972 C 29.8333 %
78 11-04-2020 00:00:00 14.775 C 25.4861 %
79 12-04-2020 00:00:00 15.71319 C 27.3056 %
80 13-04-2020 00:00:00 9.43542 C 29.6944 %
81 14-04-2020 00:00:00 6.54583 C 28.1042 %
82 15-04-2020 00:00:00 9.17222 C 30.8750 %
83 16-04-2020 00:00:00 13.09792 C 29.6667 %
84 17-04-2020 00:00:00 15.68056 C 30.2500 %
85 18-04-2020 00:00:00 14.81597 C 32.5000 %
86 19-04-2020 00:00:00 13.35694 C 32.8889 %
87 20-04-2020 00:00:00 12.80069 C 22.9861 %
88 21-04-2020 00:00:00 13.68472 C 21.3889 %
89 22-04-2020 00:00:00 14.69375 C 23.2153 %
90 23-04-2020 00:00:00 14.90347 C 25.2917 %
91 24-04-2020 00:00:00 14.72361 C 27.0278 %
Sensor: Nr:Datum:Temp:Feuchte:
G-T/H 1 25-01-2020 00:00:00 7.96806 C 71.5139 %
2 26-01-2020 00:00:00 7.98611 C 72.6597 %
3 27-01-2020 00:00:00 8.21875 C 74.7500 %
4 28-01-2020 00:00:00 8.85833 C 75.1458 %
5 29-01-2020 00:00:00 8.44306 C 74.0000 %
6 30-01-2020 00:00:00 8.61389 C 74.8750 %
7 31-01-2020 00:00:00 10.32431 C 76.3958 %
8 01-02-2020 00:00:00 11.40556 C 76.3681 %
9 02-02-2020 00:00:00 11.15903 C 73.6736 %
10 03-02-2020 00:00:00 11.4875 C 75.0000 %
11 04-02-2020 00:00:00 10.54722 C 71.2847 %
12 05-02-2020 00:00:00 9.47153 C 71.9236 %
13 06-02-2020 00:00:00 8.34306 C 70.5208 %
14 07-02-2020 00:00:00 7.79097 C 69.9167 %
15 08-02-2020 00:00:00 7.33681 C 70.6528 %
16 09-02-2020 00:00:00 8.3 C 73.5694 %
17 10-02-2020 00:00:00 9.82708 C 73.9167 %
18 11-02-2020 00:00:00 9.18194 C 72.2431 %
19 12-02-2020 00:00:00 8.72083 C 72.8750 %
20 13-02-2020 00:00:00 8.20208 C 72.5208 %
21 14-02-2020 00:00:00 8.84653 C 74.7500 %
22 15-02-2020 00:00:00 8.93958 C 73.5903 %
23 16-02-2020 00:00:00 11.3125 C 68.1111 %
24 17-02-2020 00:00:00 11.77708 C 69.2778 %
25 18-02-2020 00:00:00 10.43056 C 67.4028 %
Sensor: Nr:Datum:Temp:Feuchte:
G-T/H 26 19-02-2020 00:00:00 9.94514 C 69.4583 %
27 20-02-2020 00:00:00 9.73472 C 71.6875 %
28 21-02-2020 00:00:00 9.56875 C 71.4931 %
29 22-02-2020 00:00:00 9.25625 C 72.0625 %
30 23-02-2020 00:00:00 10.38403 C 73.7708 %
31 24-02-2020 00:00:00 10.40903 C 71.9792 %
32 25-02-2020 00:00:00 10.88819 C 73.0278 %
33 26-02-2020 00:00:00 10.02917 C 68.9306 %
34 27-02-2020 00:00:00 9.17986 C 71.0208 %
35 28-02-2020 00:00:00 8.31042 C 73.7708 %
36 29-02-2020 00:00:00 9.28125 C 75.1597 %
37 01-03-2020 00:00:00 9.80486 C 74.3403 %
38 02-03-2020 00:00:00 9.67847 C 73.5833 %
39 03-03-2020 00:00:00 9.53681 C 73.3194 %
40 04-03-2020 00:00:00 8.95833 C 73.5139 %
41 05-03-2020 00:00:00 9.15833 C 73.9861 %
42 06-03-2020 00:00:00 9.48958 C 74.9514 %
43 07-03-2020 00:00:00 9.38611 C 74.0556 %
44 08-03-2020 00:00:00 9.99583 C 74.7292 %
45 09-03-2020 00:00:00 10.54861 C 73.8819 %
46 10-03-2020 00:00:00 10.28056 C 73.3819 %
47 11-03-2020 00:00:00 11.72083 C 75.8889 %
48 12-03-2020 00:00:00 12.29653 C 71.3333 %
49 13-03-2020 00:00:00 11.08333 C 68.2014 %
50 14-03-2020 00:00:00 10.32361 C 70.1250 %
Sensor: Nr:Datum:Temp:Feuchte:
G-T/H 51 15-03-2020 00:00:00 10.87153 C 65.1667 %
52 16-03-2020 00:00:00 10.71667 C 66.3819 %
53 17-03-2020 00:00:00 11.47153 C 70.7292 %
54 18-03-2020 00:00:00 11.42569 C 70.3472 %
55 19-03-2020 00:00:00 12.36736 C 67.4583 %
56 20-03-2020 00:00:00 12.53217 C 67.5944 %
57 21-03-2020 00:00:00 11.55903 C 63.9097 %
58 22-03-2020 00:00:00 9.66111 C 61.2292 %
59 23-03-2020 00:00:00 8.67431 C 62.8819 %
60 24-03-2020 00:00:00 8.04028 C 63.8611 %
61 25-03-2020 00:00:00 7.80833 C 63.4722 %
62 26-03-2020 00:00:00 8.04028 C 64.0208 %
63 27-03-2020 00:00:00 9.19722 C 61.4583 %
64 28-03-2020 00:00:00 10.48264 C 59.6944 %
65 29-03-2020 00:00:00 10.14855 C 60.5362 %
66 30-03-2020 00:00:00 8.62708 C 59.5417 %
67 31-03-2020 00:00:00 8.58472 C 62.8194 %
68 01-04-2020 00:00:00 8.20764 C 62.6181 %
69 02-04-2020 00:00:00 8.18194 C 64.4097 %
70 03-04-2020 00:00:00 9.17708 C 61.3125 %
71 04-04-2020 00:00:00 7.05486 C 55.4306 %
72 05-04-2020 00:00:00 9.21944 C 61.8056 %
73 06-04-2020 00:00:00 10.2125 C 63.7569 %
74 07-04-2020 00:00:00 13.11319 C 59.7083 %
75 08-04-2020 00:00:00 13.17153 C 61.2847 %
Sensor: Nr:Datum:Temp:Feuchte:
G-T/H 76 09-04-2020 00:00:00 13.65556 C 60.0069 %
77 10-04-2020 00:00:00 13.73681 C 60.7847 %
78 11-04-2020 00:00:00 13.3125 C 61.3611 %
79 12-04-2020 00:00:00 13.45 C 63.2500 %
80 13-04-2020 00:00:00 13.15556 C 59.7986 %
81 14-04-2020 00:00:00 11.44375 C 58.7847 %
82 15-04-2020 00:00:00 11.16875 C 56.8333 %
83 16-04-2020 00:00:00 11.42917 C 52.3542 %
84 17-04-2020 00:00:00 14.90625 C 55.3958 %
85 18-04-2020 00:00:00 14.63333 C 62.5347 %
86 19-04-2020 00:00:00 14.45833 C 64.6250 %
87 20-04-2020 00:00:00 13.53681 C 59.6042 %
88 21-04-2020 00:00:00 13.28819 C 58.7986 %
89 22-04-2020 00:00:00 13.43958 C 59.4167 %
90 23-04-2020 00:00:00 13.68125 C 59.6181 %
91 24-04-2020 00:00:00 14.95139 C 52.1875 %

Maximal/Minimal-Werte vom 25.01.2020 - 24.04.2020

Sensor Min Max Avg
Temp
(Aussen-T/F)
-4.7 °C
24-03-2020  06:00:17
33.2 °C
12-04-2020  16:11:17
8.07 °C
Feuchte
(Aussen-T/F)
20 %
28-01-2020  13:05:17
50 %
14-03-2020  05:39:18
32.57 %
Temp
(G-T/H)
4.2 °C
04-04-2020  07:31:18
18.8 °C
17-04-2020  19:12:17
10.39 °C
Feuchte
(G-T/H)
35 %
24-04-2020  17:42:18
77 %
31-01-2020  02:45:18
67.71 %

Die Daten stammen von einer Davis Vantage Pro 2 Wetter-Station und werden unter Linux mit der Software wview2wettercgi und aufbereitet. Alle Angaben erfolgen ohne Gewähr für ihre Vollständigkeit oder Richtigkeit.
Kontakt: Rainer Krienke krienke@uni-koblenz.de . Meine Webseiten an der Uni Koblenz oder privat.
Version: $Revision: 0.78 $